Terug naar catalogus

COSMOS 2251 DEB

ActiefLEO
NORAD 35025·DEBRIS·🇷🇺 Russia

Gelanceerd Jun 16, 1993 vanaf Plesetsk Cosmodrome

Loading…

Volgende Passages (komende 24 uur)

TLE

VersSource: Space-Track

Epoch: Sep 14, 2026, 22:50 UTC

1 35025U 93036AGN 26257.95195920  .00001669  00000-0  24604-3 0  9999
2 35025  73.9344 241.1060 0080214  90.6555 270.3809 14.74038502927119

Volg COSMOS 2251 DEB in realtime met AllMySat

Download on the App Store